This demonstration page uses our WeatherBlox Daily Observations layout. Learn more.

Left ArrowRight Arrow

53.62937, 11.41316

Hourly Observations for January 15, 2016

Temp ( °F °C ) Dew Point ( °F °C ) Humidity (%) Winds ( mph kmh ) Pressure ( in mb ) Visibility ( mi km ) Precip ( " mm )
5:20 am 05:20 Mostly Cloudy 32 0 30 -1 93 93 E 9 15 29.65 1004 30 48 N/A
5:50 am 05:50 Mostly Cloudy 32 0 30 -1 93 93 E 6 9 29.65 1004 30 48 N/A
6:20 am 06:20 Mostly Cloudy with Light Snow 32 0 30 -1 93 93 E 6 9 29.68 1005 5 8 N/A
6:50 am 06:50 Mostly Cloudy 32 0 30 -1 93 93 ENE 7 11 29.68 1005 5 8 N/A
7:20 am 07:20 Mostly Cloudy 32 0 30 -1 93 93 NE 6 9 29.68 1005 4 6 N/A
7:50 am 07:50 Mostly Cloudy 32 0 30 -1 93 93 NE 6 9 29.68 1005 4 7 N/A
8:20 am 08:20 Mostly Cloudy 30 -1 30 -1 100 100 NE 8 13 29.68 1005 4 6 N/A
8:50 am 08:50 Cloudy with Mist and Fog 30 -1 30 -1 100 100 NE 9 15 29.71 1006 2 3 N/A
9:20 am 09:20 Cloudy with Mist and Fog 30 -1 30 -1 100 100 ENE 9 15 29.71 1006 3 5 N/A
9:50 am 09:50 Cloudy 30 -1 30 -1 100 100 ENE 8 13 29.71 1006 4 6 N/A
10:20 am 10:20 Cloudy with Mist and Fog 30 -1 30 -1 100 100 NE 9 15 29.74 1007 3 5 N/A
10:50 am 10:50 Cloudy 30 -1 30 -1 100 100 ENE 10 17 29.74 1007 4 6 N/A
11:20 am 11:20 Cloudy 30 -1 28 -2 93 93 NE 9 15 29.77 1008 4 6 N/A
11:50 am 11:50 Cloudy 30 -1 28 -2 93 93 ENE 9 15 29.77 1008 4 6 N/A
12:20 pm 12:20 Cloudy 30 -1 28 -2 93 93 NE 7 11 29.77 1008 4 6 N/A
12:50 pm 12:50 Cloudy with Mist and Fog 30 -1 28 -2 93 93 NNE 8 13 29.80 1009 3 4 N/A
1:20 pm 13:20 Cloudy with Mist and Fog 30 -1 28 -2 93 93 NE 7 11 29.80 1009 3 5 N/A
1:50 pm 13:50 Cloudy with Mist and Fog 30 -1 28 -2 93 93 NNE 7 11 29.80 1009 3 5 N/A
2:20 pm 14:20 Cloudy with Mist and Fog 30 -1 28 -2 93 93 NE 7 11 29.80 1009 2 4 N/A
2:50 pm 14:50 Cloudy with Mist and Fog 30 -1 28 -2 93 93 NE 6 9 29.83 1010 3 5 N/A
3:20 pm 15:20 Cloudy with Mist and Fog 30 -1 28 -2 93 93 NNE 6 9 29.83 1010 3 5 N/A
3:50 pm 15:50 Cloudy with Mist and Fog 30 -1 28 -2 93 93 NNE 7 11 29.85 1011 3 5 N/A
4:20 pm 16:20 Cloudy 30 -1 28 -2 93 93 NE 7 11 29.85 1011 4 6 N/A
4:50 pm 16:50 Cloudy 30 -1 28 -2 93 93 NE 7 11 29.88 1012 5 8 N/A
5:20 pm 17:20 Cloudy 30 -1 28 -2 93 93 NE 7 11 29.88 1012 6 9 N/A
5:50 pm 17:50 Cloudy 30 -1 28 -2 93 93 NE 6 9 29.88 1012 30 48 N/A

Powered by AerisWeather